Location: Москва
(55.7504°N, 37.6175°E)
Time: 20:44:20
(UTC+03:00)

Nauka - Pass Details

Date: 01 October 2021
Orbit: 417 x 423 km, 51.6° (Epoch: 24 October)

Event Time Altitude Azimuth Distance (km) Brightness Sun altitude
Rises 19:42:53 0° 273° (W) 2,367 ? -14.5°
Reaches altitude 10° 19:45:21 10° 256° (WSW) 1,502 ? -14.9°
Maximum altitude 19:47:51 20° 208° (SSW) 1,048 ? -15.2°
Enters shadow 19:49:35 14° 170° (S) 1,282 ? -15.4°
